TimeCDT,TemperatureF,Dew PointF,Humidity,Sea Level PressureIn,VisibilityMPH,Wind Direction,Wind SpeedMPH,Gust SpeedMPH,PrecipitationIn,Events,Conditions,WindDirDegrees,DateUTC
12:15 AM,53.6,44.6,72,30.19,10.0,North,4.6,-,N/A,,Overcast,350,2012-10-05 05:15:00
12:35 AM,53.6,46.4,77,30.20,10.0,NNW,6.9,-,N/A,,Overcast,340,2012-10-05 05:35:00
12:55 AM,53.6,44.6,72,30.20,10.0,North,3.5,-,N/A,,Overcast,360,2012-10-05 05:55:00
1:15 AM,53.6,44.6,72,30.19,10.0,North,6.9,-,N/A,,Overcast,350,2012-10-05 06:15:00
1:35 AM,53.6,44.6,72,30.20,10.0,North,8.1,-,N/A,,Overcast,350,2012-10-05 06:35:00
1:55 AM,53.6,42.8,67,30.20,10.0,North,9.2,-,N/A,,Overcast,350,2012-10-05 06:55:00
2:15 AM,51.8,41.0,67,30.20,10.0,NNW,6.9,-,N/A,,Overcast,340,2012-10-05 07:15:00
2:35 AM,51.8,41.0,67,30.20,10.0,North,4.6,-,N/A,,Overcast,350,2012-10-05 07:35:00
2:55 AM,51.8,42.8,71,30.20,10.0,NNW,6.9,-,N/A,,Overcast,330,2012-10-05 07:55:00
3:15 AM,51.8,42.8,71,30.22,10.0,NNW,6.9,-,N/A,,Overcast,340,2012-10-05 08:15:00
3:35 AM,51.8,42.8,71,30.21,10.0,North,4.6,-,N/A,,Overcast,350,2012-10-05 08:35:00
3:55 AM,50.0,42.8,76,30.21,10.0,NNW,3.5,-,N/A,Thunderstorm,Overcast,340,2012-10-05 08:55:00
4:15 AM,50.0,42.8,76,30.21,10.0,Calm,Calm,-,N/A,Thunderstorm,Overcast,0,2012-10-05 09:15:00
4:35 AM,50.0,42.8,76,30.21,10.0,North,8.1,-,N/A,,Overcast,360,2012-10-05 09:35:00
4:55 AM,50.0,42.8,76,30.22,10.0,North,5.8,-,N/A,,Overcast,350,2012-10-05 09:55:00
5:15 AM,50.0,42.8,76,30.20,10.0,North,5.8,-,N/A,,Overcast,360,2012-10-05 10:15:00
5:35 AM,50.0,42.8,76,30.20,10.0,North,3.5,-,N/A,,Overcast,10,2012-10-05 10:35:00
5:55 AM,50.0,44.6,82,30.19,8.0,Calm,Calm,-,N/A,Rain-Thunderstorm,Light Rain,0,2012-10-05 10:55:00
6:15 AM,48.2,46.4,93,30.23,10.0,NNW,8.1,-,N/A,Thunderstorm,Overcast,330,2012-10-05 11:15:00
6:35 AM,48.2,46.4,93,30.21,4.0,Calm,Calm,-,0.01,Rain-Thunderstorm,Light Thunderstorms and Rain,0,2012-10-05 11:35:00
6:55 AM,48.2,46.4,93,30.23,10.0,NNW,5.8,-,0.02,Rain-Thunderstorm,Light Rain,330,2012-10-05 11:55:00
7:15 AM,48.2,46.4,93,30.21,7.0,Calm,Calm,-,N/A,Rain-Thunderstorm,Light Rain,0,2012-10-05 12:15:00
7:35 AM,46.4,46.4,100,30.21,6.0,NNW,4.6,-,0.06,Rain-Thunderstorm,Light Rain,330,2012-10-05 12:35:00
7:55 AM,46.4,46.4,100,30.24,9.0,NNW,8.1,-,0.06,Rain-Thunderstorm,Light Thunderstorms and Rain,340,2012-10-05 12:55:00
8:15 AM,46.4,46.4,100,30.22,5.0,NNW,3.5,-,0.03,Rain-Thunderstorm,Light Thunderstorms and Rain,330,2012-10-05 13:15:00
8:35 AM,46.4,46.4,100,30.22,7.0,NE,4.6,-,0.03,Rain,Light Rain,50,2012-10-05 13:35:00
8:55 AM,46.4,46.4,100,30.21,10.0,Calm,Calm,-,0.03,,Mostly Cloudy,0,2012-10-05 13:55:00
9:15 AM,46.4,46.4,100,30.21,10.0,North,4.6,-,N/A,Thunderstorm,Overcast,360,2012-10-05 14:15:00
9:35 AM,46.4,46.4,100,30.22,10.0,North,3.5,-,N/A,,Overcast,360,2012-10-05 14:35:00
9:55 AM,46.4,46.4,100,30.20,10.0,NNE,3.5,-,N/A,,Overcast,30,2012-10-05 14:55:00
10:15 AM,46.4,46.4,100,30.20,10.0,Calm,Calm,-,N/A,Thunderstorm,Overcast,0,2012-10-05 15:15:00
10:35 AM,46.4,46.4,100,30.20,10.0,North,4.6,-,N/A,,Overcast,360,2012-10-05 15:35:00
10:55 AM,46.4,44.6,93,30.22,10.0,Calm,Calm,-,N/A,Thunderstorm,Overcast,0,2012-10-05 15:55:00
11:15 AM,46.4,41.0,81,30.22,10.0,North,8.1,-,N/A,Rain,Light Rain,350,2012-10-05 16:15:00
11:35 AM,46.4,42.8,87,30.21,2.5,NW,5.8,-,0.04,Rain-Thunderstorm,Rain,320,2012-10-05 16:35:00
12:15 PM,46.4,41.0,81,30.19,7.0,Calm,Calm,-,N/A,Rain-Thunderstorm,Light Rain,0,2012-10-05 17:15:00
12:35 PM,44.6,41.0,87,30.20,4.0,Calm,Calm,-,0.02,Rain,Light Rain,0,2012-10-05 17:35:00
12:55 PM,44.6,41.0,87,30.18,9.0,Calm,Calm,-,0.02,Rain,Light Rain,0,2012-10-05 17:55:00
1:35 PM,44.6,41.0,87,30.17,5.0,Calm,Calm,-,N/A,Rain,Light Rain,0,2012-10-05 18:35:00
1:55 PM,44.6,41.0,87,30.17,10.0,Calm,Calm,-,N/A,Thunderstorm,Mostly Cloudy,0,2012-10-05 18:55:00
2:15 PM,44.6,42.8,93,30.17,9.0,Calm,Calm,-,N/A,Rain-Thunderstorm,Light Rain,0,2012-10-05 19:15:00
2:35 PM,44.6,42.8,93,30.19,10.0,Calm,Calm,-,N/A,,Overcast,0,2012-10-05 19:35:00
2:55 PM,46.4,44.6,93,30.17,8.0,Calm,Calm,-,N/A,Thunderstorm,Overcast,0,2012-10-05 19:55:00
3:15 PM,46.4,46.4,100,30.18,9.0,NNW,10.4,-,N/A,Rain-Thunderstorm,Light Rain,330,2012-10-05 20:15:00
3:35 PM,46.4,44.6,93,30.19,2.5,North,6.9,-,0.10,Rain,Rain,360,2012-10-05 20:35:00
3:55 PM,44.6,42.8,93,30.17,6.0,North,10.4,-,0.11,Rain,Light Rain,350,2012-10-05 20:55:00
4:15 PM,44.6,41.0,87,30.18,10.0,North,10.4,18.4,N/A,,Mostly Cloudy,350,2012-10-05 21:15:00
4:35 PM,44.6,41.0,87,30.19,10.0,NNW,6.9,-,N/A,,Overcast,330,2012-10-05 21:35:00
4:55 PM,44.6,42.8,93,30.19,10.0,NNW,10.4,-,N/A,,Overcast,340,2012-10-05 21:55:00
5:15 PM,44.6,41.0,87,30.20,10.0,NNW,11.5,-,N/A,,Overcast,330,2012-10-05 22:15:00
5:35 PM,44.6,39.2,81,30.20,10.0,North,8.1,-,N/A,,Overcast,350,2012-10-05 22:35:00
5:55 PM,44.6,39.2,81,30.21,10.0,North,4.6,-,N/A,,Overcast,350,2012-10-05 22:55:00
6:15 PM,44.6,39.2,81,30.19,10.0,North,4.6,-,N/A,,Overcast,350,2012-10-05 23:15:00
6:35 PM,44.6,39.2,81,30.19,10.0,Calm,Calm,-,N/A,,Overcast,0,2012-10-05 23:35:00
6:55 PM,44.6,41.0,87,30.19,10.0,Calm,Calm,-,N/A,,Overcast,0,2012-10-05 23:55:00
7:15 PM,44.6,41.0,87,30.21,10.0,NNW,4.6,-,N/A,,Overcast,330,2012-10-06 00:15:00
7:35 PM,44.6,41.0,87,30.21,10.0,NNW,3.5,-,N/A,,Overcast,340,2012-10-06 00:35:00
7:55 PM,42.8,41.0,93,30.21,10.0,Calm,Calm,-,N/A,,Mostly Cloudy,0,2012-10-06 00:55:00
8:15 PM,42.8,41.0,93,30.21,10.0,Calm,Calm,-,N/A,,Clear,0,2012-10-06 01:15:00
8:35 PM,42.8,41.0,93,30.20,10.0,Calm,Calm,-,N/A,,Partly Cloudy,0,2012-10-06 01:35:00
8:55 PM,41.0,41.0,100,30.21,10.0,NNW,4.6,-,N/A,,Scattered Clouds,330,2012-10-06 01:55:00
9:15 PM,41.0,39.2,93,30.22,10.0,NNW,4.6,-,N/A,,Scattered Clouds,340,2012-10-06 02:15:00
9:35 PM,41.0,37.4,87,30.23,10.0,NNW,4.6,-,N/A,,Clear,340,2012-10-06 02:35:00
9:55 PM,39.2,37.4,93,30.24,10.0,NNW,4.6,-,N/A,,Clear,340,2012-10-06 02:55:00
10:15 PM,39.2,37.4,93,30.24,10.0,NNW,3.5,-,N/A,,Clear,340,2012-10-06 03:15:00
10:35 PM,39.2,37.4,93,30.24,10.0,NNW,5.8,-,N/A,,Clear,330,2012-10-06 03:35:00
10:55 PM,39.2,37.4,93,30.24,10.0,NNW,4.6,-,N/A,,Clear,330,2012-10-06 03:55:00
11:15 PM,39.2,37.4,93,30.23,10.0,Calm,Calm,-,N/A,,Clear,0,2012-10-06 04:15:00
11:55 PM,37.4,35.6,93,30.23,10.0,Calm,Calm,-,N/A,,Clear,0,2012-10-06 04:55:00